Groton, CT

6:16 AM EDT on August 17, 2017 (GMT -0400)
Groton-New London

Weather History for KGON - February, 2014

Change the Weather History Date:

Sunday, February 2, 2014

  Actual Average Record
Temperature  
Mean Temperature 40 °F -  
Max Temperature 46 °F 39 °F 55 °F (1973)
Min Temperature 35 °F 21 °F -8 °F (1961)
Degree Days  
Heating Degree Days 24    
Moisture  
Dew Point 37 °F    
Average Humidity 93    
Maximum Humidity 100    
Minimum Humidity 65    
Precipitation  
Precipitation 0.00 in - - ()
Sea Level Pressure  
Sea Level Pressure 29.95 in    
Wind  
Wind Speed 4 mph (WSW)    
Max Wind Speed 14 mph    
Max Gust Speed -    
Visibility 3 miles    
Events Fog    
Averages and records for this station are not official NWS values.
T = Trace of Precipitation, MM = Missing Value Source: NWS Daily Summary

Daily Weather History Graph

Daily Weather History Graph

Search for Another Location

Airport or City:

Trip Planner

Search our weather history database for the weather conditions in past years. The results will help you decide how hot, cold, wet, or windy it might be!

Date:

Astronomy

Feb. 02, 2014 Rise Set
Actual Time 6:58 AM EST 5:05 PM EST
Civil Twilight 6:29 AM EST 5:34 PM EST
Nautical Twilight 5:56 AM EST 6:08 PM EST
Astronomical Twilight 5:23 AM EST 6:40 PM EST
Moon 8:20 AM EST (2/2) 8:49 PM EST (2/2)
Length of Visible Light 11h 05m
Length of Day
10h 07m
Waxing Crescent, 11% of the Moon is Illuminated
Feb 2
Waxing Crescent
Feb 6
First Quarter
Feb 14
Full
Feb 22
Last Quarter
Mar 1
New

Hourly Weather History & Observations

Time (EST) Temp. Windchill Dew Point Humidity Pressure Visibility Wind Dir Wind Speed Gust Speed Precip Events Conditions
12:19 AM 35.6 °F 32.8 °F 35.6 °F 100% 30.03 in 4.0 mi South 3.5 mph - N/A   Overcast
12:32 AM 37.4 °F - 35.6 °F 93% 30.02 in 5.0 mi Calm Calm - N/A   Overcast
12:40 AM 37.4 °F 34.9 °F 35.6 °F 93% 30.02 in 5.0 mi SW 3.5 mph - N/A   Mostly Cloudy
12:56 AM 37.0 °F - 37.0 °F 100% 30.01 in 5.0 mi Calm Calm - N/A   Overcast
1:20 AM 37.4 °F - 37.4 °F 100% 30.00 in 4.0 mi Calm Calm - N/A   Mostly Cloudy
1:41 AM 37.4 °F - 37.4 °F 100% 29.98 in 3.0 mi Calm Calm - N/A   Mostly Cloudy
1:56 AM 37.0 °F - 37.0 °F 100% 29.98 in 3.0 mi Calm Calm - N/A   Overcast
2:15 AM 35.6 °F - 35.6 °F 100% 29.97 in 3.0 mi Calm Calm - N/A   Overcast
2:56 AM 37.0 °F - 36.0 °F 96% 29.95 in 4.0 mi Calm Calm - N/A   Overcast
3:38 AM 37.4 °F - 35.6 °F 93% 29.92 in 4.0 mi Calm Calm - N/A   Overcast
3:56 AM 37.0 °F - 37.0 °F 100% 29.92 in 3.0 mi Calm Calm - N/A   Overcast
4:09 AM 37.4 °F - 37.4 °F 100% 29.92 in 2.0 mi Calm Calm - N/A   Overcast
4:16 AM 37.4 °F - 37.4 °F 100% 29.92 in 0.8 mi Calm Calm - N/A   Overcast
4:26 AM 37.4 °F - 37.4 °F 100% 29.91 in 0.2 mi Calm Calm - N/A Fog Fog
4:56 AM 37.0 °F - 37.0 °F 100% 29.92 in 0.2 mi Calm Calm - N/A Fog Fog
5:21 AM 39.2 °F 37.0 °F 39.2 °F 100% 29.91 in 0.2 mi West 3.5 mph - N/A Fog Fog
5:28 AM 41.0 °F 39.0 °F 41.0 °F 100% 29.90 in 0.5 mi WNW 3.5 mph - N/A Fog Fog
5:45 AM 39.2 °F 34.2 °F 39.2 °F 100% 29.91 in 1.5 mi West 6.9 mph - N/A   Overcast
5:56 AM 39.9 °F 36.7 °F 39.9 °F 100% 29.91 in 1.8 mi West 4.6 mph - N/A   Overcast
6:29 AM 39.2 °F 37.0 °F 39.2 °F 100% 29.90 in 3.0 mi West 3.5 mph - N/A   Overcast
6:39 AM 39.2 °F 35.9 °F 39.2 °F 100% 29.90 in 1.8 mi West 4.6 mph - N/A   Overcast
6:56 AM 39.0 °F 34.8 °F 39.0 °F 100% 29.90 in 0.5 mi SW 5.8 mph - N/A Fog Fog
7:13 AM 39.2 °F 34.2 °F 39.2 °F 100% 29.90 in 0.2 mi WSW 6.9 mph - N/A Fog Fog
7:28 AM 39.2 °F 34.2 °F 39.2 °F 100% 29.91 in 0.2 mi SW 6.9 mph - N/A Fog Fog
7:56 AM 37.9 °F 30.9 °F 37.9 °F 100% 29.92 in 0.2 mi WSW 10.4 mph - N/A Fog Fog
8:56 AM 37.9 °F 29.6 °F 37.9 °F 100% 29.93 in 0.2 mi WSW 13.8 mph - N/A Fog Fog
9:15 AM 37.4 °F 29.8 °F 37.4 °F 100% 29.93 in 0.2 mi WSW 11.5 mph - N/A Fog Fog
9:21 AM 37.4 °F 29.8 °F 37.4 °F 100% 29.93 in 0.5 mi WSW 11.5 mph - N/A Fog Fog
9:32 AM 37.4 °F 30.8 °F 37.4 °F 100% 29.93 in 0.2 mi West 9.2 mph - N/A Fog Fog
9:43 AM 37.4 °F 29.8 °F 37.4 °F 100% 29.93 in 0.5 mi WSW 11.5 mph - N/A Fog Fog
9:56 AM 37.0 °F 28.9 °F 37.0 °F 100% 29.94 in 0.5 mi WSW 12.7 mph - N/A Fog Fog
10:24 AM 37.4 °F 30.8 °F 37.4 °F 100% 29.94 in 1.0 mi WSW 9.2 mph - N/A   Overcast
10:56 AM 37.9 °F 32.7 °F 37.0 °F 97% 29.94 in 1.0 mi WSW 6.9 mph - N/A   Overcast
11:44 AM 39.2 °F 33.6 °F 37.4 °F 93% 29.94 in 2.0 mi WSW 8.1 mph - N/A   Scattered Clouds
11:56 AM 41.0 °F 36.4 °F 37.9 °F 89% 29.93 in 5.0 mi SW 6.9 mph - N/A   Partly Cloudy
12:56 PM 39.9 °F 33.9 °F 37.0 °F 89% 29.92 in 5.0 mi SSW 9.2 mph - N/A   Mostly Cloudy
1:56 PM 43.0 °F 38.2 °F 37.0 °F 80% 29.92 in 6.0 mi South 8.1 mph - N/A   Haze
2:56 PM 46.0 °F 43.1 °F 36.0 °F 68% 29.93 in 6.0 mi SW 5.8 mph - N/A   Haze
3:56 PM 41.0 °F 37.1 °F 36.0 °F 82% 29.91 in 5.0 mi SSW 5.8 mph - N/A   Haze
4:56 PM 42.1 °F 39.2 °F 36.0 °F 79% 29.94 in 5.0 mi SW 4.6 mph - N/A   Haze
5:56 PM 39.9 °F - 36.0 °F 86% 29.96 in 6.0 mi Calm Calm - N/A   Overcast
6:56 PM 39.9 °F - 36.0 °F 86% 29.96 in 5.0 mi Calm Calm - N/A   Overcast
7:56 PM 46.0 °F 44.8 °F 37.0 °F 71% 30.01 in 8.0 mi NW 3.5 mph - N/A   Overcast
8:56 PM 44.1 °F 40.8 °F 36.0 °F 73% 30.03 in 8.0 mi NNW 5.8 mph - N/A   Overcast
9:56 PM 43.0 °F 38.8 °F 34.0 °F 71% 30.04 in 9.0 mi NNW 6.9 mph - N/A   Overcast
10:56 PM 43.0 °F 38.8 °F 32.0 °F 65% 30.06 in 9.0 mi NNW 6.9 mph - N/A   Overcast
11:56 PM 41.0 °F 35.2 °F 30.0 °F 65% 30.06 in 9.0 mi NNW 9.2 mph - N/A   Overcast